TimeMST,TemperatureF,Dew PointF,Humidity,Sea Level PressureIn,VisibilityMPH,Wind Direction,Wind SpeedMPH,Gust SpeedMPH,PrecipitationIn,Events,Conditions,WindDirDegrees,DateUTC
12:15 AM,69.8,35.6,28,29.97,10.0,NNW,4.6,-,N/A,,Clear,330,2013-09-30 07:15:00
12:35 AM,71.6,35.6,27,29.97,10.0,Calm,Calm,-,N/A,,Clear,0,2013-09-30 07:35:00
12:55 AM,68.0,37.4,33,29.97,10.0,Calm,Calm,-,N/A,,Clear,0,2013-09-30 07:55:00
1:15 AM,64.4,35.6,34,29.97,10.0,Calm,Calm,-,N/A,,Clear,0,2013-09-30 08:15:00
1:35 AM,62.6,35.6,37,29.97,10.0,Calm,Calm,-,N/A,,Clear,0,2013-09-30 08:35:00
1:55 AM,62.6,35.6,37,29.97,10.0,NE,3.5,-,N/A,,Clear,40,2013-09-30 08:55:00
2:15 AM,62.6,35.6,37,29.97,10.0,NNE,5.8,-,N/A,,Clear,20,2013-09-30 09:15:00
2:35 AM,62.6,35.6,37,29.97,10.0,North,4.6,-,N/A,,Clear,10,2013-09-30 09:35:00
2:55 AM,60.8,35.6,39,29.97,10.0,Calm,Calm,-,N/A,,Clear,0,2013-09-30 09:55:00
3:15 AM,62.6,37.4,39,29.96,10.0,Calm,Calm,-,N/A,,Clear,0,2013-09-30 10:15:00
3:35 AM,60.8,35.6,39,29.96,10.0,Calm,Calm,-,N/A,,Clear,0,2013-09-30 10:35:00
3:55 AM,62.6,37.4,39,29.97,10.0,Calm,Calm,-,N/A,,Clear,0,2013-09-30 10:55:00
4:15 AM,60.8,35.6,39,29.96,10.0,Calm,Calm,-,N/A,,Clear,0,2013-09-30 11:15:00
4:35 AM,57.2,35.6,44,29.97,10.0,Calm,Calm,-,N/A,,Clear,0,2013-09-30 11:35:00
4:55 AM,57.2,35.6,44,29.96,10.0,Calm,Calm,-,N/A,,Clear,0,2013-09-30 11:55:00
5:15 AM,59.0,37.4,45,29.97,10.0,Calm,Calm,-,N/A,,Clear,0,2013-09-30 12:15:00
5:35 AM,57.2,35.6,44,29.97,10.0,Calm,Calm,-,N/A,,Clear,0,2013-09-30 12:35:00
5:55 AM,57.2,37.4,48,29.97,10.0,Calm,Calm,-,N/A,,Clear,0,2013-09-30 12:55:00
6:15 AM,59.0,35.6,42,29.97,10.0,Calm,Calm,-,N/A,,Clear,0,2013-09-30 13:15:00
6:35 AM,55.4,35.6,47,29.97,10.0,Calm,Calm,-,N/A,,Clear,0,2013-09-30 13:35:00
6:55 AM,59.0,37.4,45,29.98,10.0,Calm,Calm,-,N/A,,Clear,0,2013-09-30 13:55:00
7:15 AM,60.8,37.4,42,29.98,10.0,NE,3.5,-,N/A,,Clear,40,2013-09-30 14:15:00
7:35 AM,62.6,35.6,37,29.98,10.0,NE,3.5,-,N/A,,Clear,40,2013-09-30 14:35:00
7:55 AM,66.2,37.4,35,29.99,10.0,ENE,4.6,-,N/A,,Clear,70,2013-09-30 14:55:00
8:15 AM,66.2,37.4,35,29.99,10.0,East,3.5,-,N/A,,Clear,100,2013-09-30 15:15:00
8:35 AM,69.8,37.4,31,30.00,10.0,East,4.6,-,N/A,,Clear,90,2013-09-30 15:35:00
8:55 AM,69.8,39.2,33,30.00,10.0,Calm,Calm,-,N/A,,Clear,0,2013-09-30 15:55:00
9:15 AM,73.4,39.2,29,30.00,10.0,SE,3.5,-,N/A,,Clear,130,2013-09-30 16:15:00
9:35 AM,75.2,39.2,27,30.00,10.0,Calm,Calm,-,N/A,,Clear,0,2013-09-30 16:35:00
9:55 AM,77.0,37.4,24,30.00,10.0,Calm,Calm,-,N/A,,Clear,0,2013-09-30 16:55:00
10:15 AM,78.8,37.4,23,30.00,10.0,Calm,Calm,-,N/A,,Clear,0,2013-09-30 17:15:00
10:35 AM,80.6,37.4,21,29.99,10.0,Calm,Calm,-,N/A,,Clear,0,2013-09-30 17:35:00
10:55 AM,82.4,37.4,20,29.99,10.0,Calm,Calm,-,N/A,,Clear,0,2013-09-30 17:55:00
11:15 AM,84.2,35.6,18,29.98,10.0,Calm,Calm,-,N/A,,Clear,0,2013-09-30 18:15:00
11:35 AM,84.2,35.6,18,29.98,10.0,Calm,Calm,-,N/A,,Clear,0,2013-09-30 18:35:00
11:55 AM,87.8,35.6,16,29.97,10.0,ESE,3.5,-,N/A,,Clear,110,2013-09-30 18:55:00
12:15 PM,87.8,35.6,16,29.96,10.0,Calm,Calm,-,N/A,,Clear,0,2013-09-30 19:15:00
12:35 PM,87.8,35.6,16,29.95,10.0,Calm,Calm,-,N/A,,Clear,0,2013-09-30 19:35:00
12:55 PM,87.8,33.8,15,29.94,10.0,East,3.5,-,N/A,,Clear,100,2013-09-30 19:55:00
1:15 PM,89.6,33.8,14,29.93,10.0,NW,5.8,-,N/A,,Clear,310,2013-09-30 20:15:00
1:35 PM,89.6,32.0,13,29.92,10.0,SW,5.8,-,N/A,,Clear,220,2013-09-30 20:35:00
1:55 PM,89.6,32.0,13,29.91,10.0,WNW,4.6,-,N/A,,Clear,290,2013-09-30 20:55:00
2:15 PM,89.6,32.0,13,29.91,10.0,WNW,9.2,-,N/A,,Clear,290,2013-09-30 21:15:00
2:35 PM,91.4,33.8,13,29.90,10.0,WNW,9.2,-,N/A,,Clear,290,2013-09-30 21:35:00
2:55 PM,91.4,33.8,13,29.89,10.0,West,10.4,-,N/A,,Clear,270,2013-09-30 21:55:00
3:15 PM,91.4,33.8,13,29.89,10.0,WSW,6.9,-,N/A,,Clear,240,2013-09-30 22:15:00
3:35 PM,91.4,33.8,13,29.88,10.0,West,6.9,-,N/A,,Clear,260,2013-09-30 22:35:00
3:55 PM,91.4,33.8,13,29.88,10.0,West,6.9,-,N/A,,Clear,270,2013-09-30 22:55:00
4:15 PM,91.4,33.8,13,29.87,10.0,SW,5.8,-,N/A,,Clear,230,2013-09-30 23:15:00
4:35 PM,91.4,33.8,13,29.87,10.0,WSW,5.8,-,N/A,,Clear,250,2013-09-30 23:35:00
4:55 PM,89.6,33.8,14,29.86,10.0,West,5.8,-,N/A,,Clear,260,2013-09-30 23:55:00
5:15 PM,89.6,33.8,14,29.86,10.0,West,5.8,-,N/A,,Clear,270,2013-10-01 00:15:00
5:35 PM,89.6,33.8,14,29.85,10.0,WNW,5.8,-,N/A,,Clear,290,2013-10-01 00:35:00
5:55 PM,89.6,32.0,13,29.85,10.0,NNW,4.6,-,N/A,,Clear,340,2013-10-01 00:55:00
6:15 PM,84.2,32.0,15,29.85,10.0,North,5.8,-,N/A,,Clear,360,2013-10-01 01:15:00
6:35 PM,82.4,32.0,16,29.85,10.0,North,6.9,-,N/A,,Clear,360,2013-10-01 01:35:00
6:55 PM,80.6,30.2,16,29.85,10.0,North,6.9,-,N/A,,Clear,350,2013-10-01 01:55:00
7:15 PM,78.8,32.0,18,29.86,10.0,North,5.8,-,N/A,,Clear,350,2013-10-01 02:15:00
7:35 PM,77.0,32.0,19,29.86,10.0,North,6.9,-,N/A,,Clear,350,2013-10-01 02:35:00
7:55 PM,77.0,32.0,19,29.87,10.0,North,6.9,-,N/A,,Clear,350,2013-10-01 02:55:00
8:15 PM,75.2,32.0,21,29.87,10.0,North,6.9,-,N/A,,Clear,350,2013-10-01 03:15:00
8:35 PM,75.2,32.0,21,29.88,10.0,NNW,6.9,-,N/A,,Clear,340,2013-10-01 03:35:00
8:55 PM,75.2,32.0,21,29.88,10.0,Calm,Calm,-,N/A,,Clear,0,2013-10-01 03:55:00
9:15 PM,73.4,33.8,23,29.89,10.0,Calm,Calm,-,N/A,,Clear,0,2013-10-01 04:15:00
9:35 PM,69.8,32.0,25,29.89,10.0,Calm,Calm,-,N/A,,Clear,0,2013-10-01 04:35:00
9:55 PM,69.8,32.0,25,29.89,10.0,Calm,Calm,-,N/A,,Clear,0,2013-10-01 04:55:00
10:15 PM,69.8,32.0,25,29.89,10.0,NE,3.5,-,N/A,,Clear,40,2013-10-01 05:15:00
10:35 PM,66.2,32.0,28,29.89,10.0,Calm,Calm,-,N/A,,Clear,0,2013-10-01 05:35:00
10:55 PM,66.2,32.0,28,29.89,10.0,NE,4.6,-,N/A,,Clear,40,2013-10-01 05:55:00
11:15 PM,66.2,32.0,28,29.89,10.0,NE,3.5,-,N/A,,Clear,40,2013-10-01 06:15:00
11:35 PM,66.2,32.0,28,29.89,10.0,NNE,3.5,-,N/A,,Clear,30,2013-10-01 06:35:00
11:55 PM,66.2,33.8,30,29.89,10.0,Calm,Calm,-,N/A,,Clear,0,2013-10-01 06:55:00